Location: Helsinki
(60.1699°N, 24.9384°E)
Time: 17:29:15
(UTC+02:00)

A-11 Canister half - Pass Details

Date: 29 October 2020
Orbit: 1525 x 1684 km, 47.3° (Epoch: 29 November)

Event Time Altitude Azimuth Distance (km) Brightness Sun altitude
Rises 18:01:32 0° 258° (WSW) 4,735 13.7 -11.6°
Reaches altitude 10° 18:04:54 10° 251° (WSW) 3,733 12.4 -12.0°
Maximum altitude 18:13:08 36° 189° (S) 2,241 10.0 -13.0°
Drops below altitude 10° 18:21:16 10° 128° (SE) 3,691 10.6 -14.1°
Enters shadow 18:22:09 - 125° (SE) 3,942 10.7 -14.2°
